Weather History for KASL - October, 2012

Change the Weather History Date:

Saturday, October 20, 2012

  Actual Average (KGGG) Record (KGGG)
Temperature  
Mean Temperature 61 °F 65 °F  
Max Temperature 80 °F 77 °F 97 °F (1947)
Min Temperature 42 °F 53 °F 34 °F (1966)
Degree Days  
Heating Degree Days 4 3  
Month to date heating degree days 35  
Since 1 July heating degree days 41  
Cooling Degree Days 0 3  
Month to date cooling degree days 87  
Year to date cooling degree days 2366  
Growing Degree Days 11 (Base 50)    
Moisture  
Dew Point 45 °F    
Average Humidity 61    
Maximum Humidity 93    
Minimum Humidity 24    
Precipitation  
Precipitation 0.00 in 0.16 in 1.54 in (1993)
Month to date precipitation 3.04  
Year to date precipitation 37.03  
Snow  
Snow 0.00 in - - ()
Month to date snowfall  
Since 1 July snowfall  
Since 1 September snowfall  
Snow Depth -    
Sea Level Pressure  
Sea Level Pressure 29.92 in    
Wind  
Wind Speed 3 mph (SSE)    
Max Wind Speed 13 mph    
Max Gust Speed 18 mph    
Visibility 10 miles    
Events      
T = Trace of Precipitation, MM = Missing Value Source: NWS Daily Summary

Daily Weather History Graph

Daily Weather History Graph

Search for Another Location

Airport or City:

Trip Planner

Search our weather history database for the weather conditions in past years. The results will help you decide how hot, cold, wet, or windy it might be!

Date:

Astronomy

Oct. 20, 2012 Rise Set
Actual Time 7:25 AM CDT 6:38 PM CDT
Civil Twilight 7:00 AM CDT 7:02 PM CDT
Nautical Twilight 6:31 AM CDT 7:31 PM CDT
Astronomical Twilight 6:03 AM CDT 8:00 PM CDT
Moon 12:52 PM CDT (10/20) 11:33 PM CDT (10/20)
Length of Visible Light 12h 02m
Length of Day
11h 12m
Waxing Crescent, 34% of the Moon is Illuminated
Oct 20
Waxing Crescent
Oct 21
First Quarter
Oct 29
Full
Nov 6
Last Quarter
Nov 13
New

Hourly Weather History & Observations

Time (CDT) Temp. Windchill Dew Point Humidity Pressure Visibility Wind Dir Wind Speed Gust Speed Precip Events Conditions
12:15 AM 44.6 °F - 42.8 °F 93% 29.94 in 10.0 mi Calm Calm - N/A   Clear
12:35 AM 44.6 °F - 42.8 °F 93% 29.95 in 10.0 mi Calm Calm - N/A   Clear
12:55 AM 44.6 °F - 42.8 °F 93% 29.94 in 10.0 mi Calm Calm - N/A   Clear
1:15 AM 44.6 °F - 42.8 °F 93% 29.94 in 10.0 mi Calm Calm - N/A   Clear
1:55 AM 44.6 °F - 42.8 °F 93% 29.94 in 10.0 mi Calm Calm - N/A   Clear
2:15 AM 44.6 °F - 42.8 °F 93% 29.94 in 10.0 mi Calm Calm - N/A   Clear
2:35 AM 44.6 °F - 42.8 °F 93% 29.94 in 10.0 mi Calm Calm - N/A   Clear
2:55 AM 44.6 °F - 42.8 °F 93% 29.94 in 10.0 mi Calm Calm - N/A   Clear
3:15 AM 44.6 °F - 42.8 °F 93% 29.93 in 10.0 mi Calm Calm - N/A   Clear
3:35 AM 44.6 °F - 42.8 °F 93% 29.93 in 10.0 mi Calm Calm - N/A   Clear
3:55 AM 44.6 °F - 42.8 °F 93% 29.93 in 10.0 mi Calm Calm - N/A   Clear
4:15 AM 44.6 °F - 42.8 °F 93% 29.93 in 10.0 mi Calm Calm - N/A   Clear
4:35 AM 44.6 °F - 42.8 °F 93% 29.93 in 10.0 mi Calm Calm - N/A   Clear
4:55 AM 44.6 °F - 42.8 °F 93% 29.93 in 10.0 mi Calm Calm - N/A   Clear
5:15 AM 44.6 °F - 41.0 °F 87% 29.93 in 10.0 mi Calm Calm - N/A   Clear
5:35 AM 42.8 °F - 41.0 °F 93% 29.93 in 10.0 mi Calm Calm - N/A   Clear
5:55 AM 42.8 °F - 41.0 °F 93% 29.94 in 10.0 mi Calm Calm - N/A   Clear
6:15 AM 42.8 °F - 41.0 °F 93% 29.94 in 10.0 mi Calm Calm - N/A   Clear
6:35 AM 42.8 °F - 41.0 °F 93% 29.94 in 10.0 mi Calm Calm - N/A   Clear
6:55 AM 42.8 °F - 41.0 °F 93% 29.95 in 10.0 mi Calm Calm - N/A   Clear
7:15 AM 42.8 °F - 41.0 °F 93% 29.95 in 10.0 mi Calm Calm - N/A   Clear
7:35 AM 42.8 °F - 41.0 °F 93% 29.95 in 10.0 mi Calm Calm - N/A   Clear
7:55 AM 44.6 °F - 42.8 °F 93% 29.96 in 10.0 mi Calm Calm - N/A   Clear
8:15 AM 44.6 °F - 42.8 °F 93% 29.96 in 10.0 mi Calm Calm - N/A   Clear
8:35 AM 46.4 °F 45.2 °F 42.8 °F 87% 29.96 in 10.0 mi SSE 3.5 mph - N/A   Clear
8:55 AM 50.0 °F - 42.8 °F 76% 29.97 in 10.0 mi SSE 3.5 mph - N/A   Clear
9:15 AM 53.6 °F - 44.6 °F 72% 29.97 in 10.0 mi SSE 3.5 mph - N/A   Clear
9:35 AM 57.2 °F - 44.6 °F 63% 29.97 in 10.0 mi SSE 5.8 mph - N/A   Clear
9:55 AM 59.0 °F - 44.6 °F 59% 29.98 in 10.0 mi SSE 5.8 mph - N/A   Clear
10:15 AM 64.4 °F - 50.0 °F 59% 29.98 in 10.0 mi SSE 5.8 mph - N/A   Clear
10:35 AM 66.2 °F - 46.4 °F 49% 29.98 in 10.0 mi SSE 4.6 mph - N/A   Clear
10:55 AM 69.8 °F - 48.2 °F 46% 29.97 in 10.0 mi South 8.1 mph - N/A   Clear
11:15 AM 71.6 °F - 44.6 °F 38% 29.96 in 10.0 mi South 9.2 mph - N/A   Clear
11:35 AM 71.6 °F - 42.8 °F 35% 29.96 in 10.0 mi South 11.5 mph - N/A   Clear
11:55 AM 75.2 °F - 42.8 °F 31% 29.96 in 10.0 mi South 12.7 mph - N/A   Clear
12:15 PM 75.2 °F - 42.8 °F 31% 29.95 in 10.0 mi South 11.5 mph - N/A   Clear
12:35 PM 77.0 °F - 44.6 °F 32% 29.94 in 10.0 mi South 11.5 mph - N/A   Clear
12:55 PM 77.0 °F - 42.8 °F 29% 29.93 in 10.0 mi South 12.7 mph 16.1 mph N/A   Clear
1:15 PM 77.0 °F - 41.0 °F 28% 29.92 in 10.0 mi SSW 11.5 mph 18.4 mph N/A   Clear
1:35 PM 78.8 °F - 41.0 °F 26% 29.91 in 10.0 mi South 11.5 mph - N/A   Clear
1:55 PM 78.8 °F - 41.0 °F 26% 29.90 in 10.0 mi SSE 11.5 mph 16.1 mph N/A   Clear
2:15 PM 78.8 °F - 41.0 °F 26% 29.89 in 10.0 mi South 11.5 mph 16.1 mph N/A   Clear
2:35 PM 78.8 °F - 41.0 °F 26% 29.88 in 10.0 mi South 10.4 mph 17.3 mph N/A   Clear
2:55 PM 78.8 °F - 41.0 °F 26% 29.88 in 10.0 mi SSE 12.7 mph - N/A   Clear
3:15 PM 80.6 °F - 41.0 °F 24% 29.87 in 10.0 mi SSE 10.4 mph - N/A   Clear
3:35 PM 80.6 °F - 41.0 °F 24% 29.87 in 10.0 mi SSE 10.4 mph - N/A   Clear
3:55 PM 78.8 °F - 42.8 °F 28% 29.87 in 10.0 mi South 10.4 mph - N/A   Clear
4:15 PM 78.8 °F - 42.8 °F 28% 29.86 in 10.0 mi South 9.2 mph - N/A   Clear
4:35 PM 78.8 °F - 44.6 °F 30% 29.86 in 10.0 mi SSE 11.5 mph - N/A   Clear
4:55 PM 78.8 °F - 44.6 °F 30% 29.86 in 10.0 mi SSE 11.5 mph 17.3 mph N/A   Clear
5:15 PM 78.8 °F - 44.6 °F 30% 29.86 in 10.0 mi SSE 10.4 mph - N/A   Clear
5:35 PM 77.0 °F - 46.4 °F 34% 29.86 in 10.0 mi SSE 8.1 mph - N/A   Clear
5:55 PM 75.2 °F - 50.0 °F 41% 29.86 in 10.0 mi SE 3.5 mph - N/A   Clear
6:15 PM 75.2 °F - 50.0 °F 41% 29.86 in 10.0 mi SE 4.6 mph - N/A   Clear
6:35 PM 71.6 °F - 50.0 °F 46% 29.86 in 10.0 mi SE 3.5 mph - N/A   Clear
6:55 PM 71.6 °F - 50.0 °F 46% 29.86 in 10.0 mi SE 3.5 mph - N/A   Clear
7:15 PM 69.8 °F - 50.0 °F 49% 29.86 in 10.0 mi Calm Calm - N/A   Clear
7:35 PM 69.8 °F - 51.8 °F 53% 29.86 in 10.0 mi ESE 3.5 mph - N/A   Clear
7:55 PM 68.0 °F - 51.8 °F 56% 29.86 in 10.0 mi Calm Calm - N/A   Clear
8:15 PM 68.0 °F - 50.0 °F 52% 29.86 in 10.0 mi Calm Calm - N/A   Clear
8:35 PM 68.0 °F - 50.0 °F 52% 29.87 in 10.0 mi SE 3.5 mph - N/A   Clear
8:55 PM 64.4 °F - 50.0 °F 59% 29.87 in 10.0 mi SE 4.6 mph - N/A   Clear
9:15 PM 68.0 °F - 50.0 °F 52% 29.88 in 10.0 mi SE 3.5 mph - N/A   Clear
9:35 PM 68.0 °F - 51.8 °F 56% 29.88 in 10.0 mi SSE 5.8 mph - N/A   Clear
9:55 PM 68.0 °F - 51.8 °F 56% 29.89 in 10.0 mi SSE 6.9 mph - N/A   Clear
10:15 PM 68.0 °F - 51.8 °F 56% 29.89 in 10.0 mi SSE 9.2 mph - N/A   Clear
10:35 PM 68.0 °F - 51.8 °F 56% 29.90 in 10.0 mi SSE 8.1 mph - N/A   Clear
10:55 PM 68.0 °F - 53.6 °F 60% 29.90 in 10.0 mi South 8.1 mph - N/A   Clear
11:15 PM 66.2 °F - 53.6 °F 64% 29.90 in 10.0 mi SSE 9.2 mph - N/A   Scattered Clouds
11:35 PM 64.4 °F - 51.8 °F 64% 29.90 in 10.0 mi SSE 6.9 mph - N/A   Clear
11:55 PM 64.4 °F - 53.6 °F 68% 29.90 in 10.0 mi SSE 8.1 mph - N/A   Clear